Location: Newark
(45.5000°N, 11.4167°E)
Time: 09:47:47
(UTC+00:00)

Vanguard 2 - Pass Details

Date: 31 August 2019
Orbit: 554 x 2937 km, 32.9° (Epoch: 21 October)

Event Time Altitude Azimuth Distance (km) Brightness Sun altitude
Rises 14:10:08 0° 255° (WSW) 3,511 11.8 37.3°
Reaches altitude 10° 14:13:17 10° 235° (SW) 2,883 11.8 36.9°
Maximum altitude 14:17:47 18° 196° (SSW) 2,804 11.2 36.2°
Drops below altitude 10° 14:23:40 10° 159° (SSE) 3,952 11.3 35.3°
Sets 14:29:12 0° 143° (SE) 5,467 11.8 34.4°
